Year,Month,Day,Hour,Minute,Value (Times are PST for temperature in C)
2017,08,17,00,00,16.80
2017,08,17,00,01,16.70
2017,08,17,00,02,16.60
2017,08,17,00,03,16.50
2017,08,17,00,04,16.50
2017,08,17,00,05,16.40
2017,08,17,00,06,16.40
2017,08,17,00,07,16.30
2017,08,17,00,08,16.30
2017,08,17,00,09,16.30
2017,08,17,00,10,16.20
2017,08,17,00,11,16.20
2017,08,17,00,12,16.20
2017,08,17,00,13,16.20
2017,08,17,00,14,16.10
2017,08,17,00,15,16.10
2017,08,17,00,16,16.10
2017,08,17,00,17,16.10
2017,08,17,00,18,16.10
2017,08,17,00,19,16.00
2017,08,17,00,20,16.00
2017,08,17,00,21,15.90
2017,08,17,00,22,15.80
2017,08,17,00,23,15.70
2017,08,17,00,24,15.70
2017,08,17,00,25,15.60
2017,08,17,00,26,15.50
2017,08,17,00,27,15.50
2017,08,17,00,28,15.40
2017,08,17,00,29,15.40
2017,08,17,00,30,15.40
2017,08,17,00,31,15.30
2017,08,17,00,32,15.30
2017,08,17,00,33,15.20
2017,08,17,00,34,15.10
2017,08,17,00,35,15.10
2017,08,17,00,36,15.00
2017,08,17,00,37,15.00
2017,08,17,00,38,15.00
2017,08,17,00,39,15.00
2017,08,17,00,40,15.00
2017,08,17,00,41,15.00
2017,08,17,00,42,15.00
2017,08,17,00,43,15.00
2017,08,17,00,44,15.20
2017,08,17,00,45,15.20
2017,08,17,00,46,15.30
2017,08,17,00,47,15.40
2017,08,17,00,48,15.40
2017,08,17,00,49,15.40
2017,08,17,00,50,15.40
2017,08,17,00,51,15.50
2017,08,17,00,52,15.60
2017,08,17,00,53,15.70
2017,08,17,00,54,15.70
2017,08,17,00,55,15.80
2017,08,17,00,56,15.80
2017,08,17,00,57,15.90
2017,08,17,00,58,16.00
2017,08,17,00,59,16.00
2017,08,17,01,00,16.10
2017,08,17,01,01,16.10
2017,08,17,01,02,16.10
2017,08,17,01,03,16.20
2017,08,17,01,04,16.20
2017,08,17,01,05,16.20
2017,08,17,01,06,16.20
2017,08,17,01,07,16.20
2017,08,17,01,08,16.20
2017,08,17,01,09,16.30
2017,08,17,01,10,16.30
2017,08,17,01,11,16.30
2017,08,17,01,12,16.30
2017,08,17,01,13,16.40
2017,08,17,01,14,16.40
2017,08,17,01,15,16.40
2017,08,17,01,16,16.40
2017,08,17,01,17,16.50
2017,08,17,01,18,16.50
2017,08,17,01,19,16.60
2017,08,17,01,20,16.60
2017,08,17,01,21,16.60
2017,08,17,01,22,16.70
2017,08,17,01,23,16.70
2017,08,17,01,24,16.70
2017,08,17,01,25,16.70
2017,08,17,01,26,16.80
2017,08,17,01,27,16.80
2017,08,17,01,28,16.80
2017,08,17,01,29,16.80
2017,08,17,01,30,16.80
2017,08,17,01,31,16.70
2017,08,17,01,32,16.70
2017,08,17,01,33,16.70
2017,08,17,01,34,16.70
2017,08,17,01,35,16.70
2017,08,17,01,36,16.60
2017,08,17,01,37,16.60
2017,08,17,01,38,16.60
2017,08,17,01,39,16.60
2017,08,17,01,40,16.50
2017,08,17,01,41,16.50
2017,08,17,01,42,16.40
2017,08,17,01,43,16.40
2017,08,17,01,44,16.40
2017,08,17,01,45,16.30
2017,08,17,01,46,16.30
2017,08,17,01,47,16.30
2017,08,17,01,48,16.20
2017,08,17,01,49,16.20
2017,08,17,01,50,16.20
2017,08,17,01,51,16.10
2017,08,17,01,52,16.10
2017,08,17,01,53,16.10
2017,08,17,01,54,16.10
2017,08,17,01,55,16.20
2017,08,17,01,56,16.20
2017,08,17,01,57,16.20
2017,08,17,01,58,16.20
2017,08,17,01,59,16.30
2017,08,17,02,00,16.30
2017,08,17,02,01,16.30
2017,08,17,02,02,16.30
2017,08,17,02,03,16.30
2017,08,17,02,04,16.30
2017,08,17,02,05,16.30
2017,08,17,02,06,16.30
2017,08,17,02,07,16.30
2017,08,17,02,08,16.30
2017,08,17,02,09,16.30
2017,08,17,02,10,16.30
2017,08,17,02,11,16.30
2017,08,17,02,12,16.30
2017,08,17,02,13,16.30
2017,08,17,02,14,16.30
2017,08,17,02,15,16.30
2017,08,17,02,16,16.30
2017,08,17,02,17,16.30
2017,08,17,02,18,16.30
2017,08,17,02,19,16.40
2017,08,17,02,20,16.40
2017,08,17,02,21,16.40
2017,08,17,02,22,16.40
2017,08,17,02,23,16.40
2017,08,17,02,24,16.40
2017,08,17,02,25,16.40
2017,08,17,02,26,16.40
2017,08,17,02,27,16.40
2017,08,17,02,28,16.40
2017,08,17,02,29,16.40
2017,08,17,02,30,16.40
2017,08,17,02,31,16.40
2017,08,17,02,32,16.40
2017,08,17,02,33,16.40
2017,08,17,02,34,16.40
2017,08,17,02,35,16.40
2017,08,17,02,36,16.40
2017,08,17,02,37,16.40
2017,08,17,02,38,16.40
2017,08,17,02,39,16.30
2017,08,17,02,40,16.30
2017,08,17,02,41,16.30
2017,08,17,02,42,16.30
2017,08,17,02,43,16.20
2017,08,17,02,44,16.20
2017,08,17,02,45,16.20
2017,08,17,02,46,16.20
2017,08,17,02,47,16.20
2017,08,17,02,48,16.10
2017,08,17,02,49,16.10
2017,08,17,02,50,16.10
2017,08,17,02,51,16.10
2017,08,17,02,52,16.10
2017,08,17,02,53,16.10
2017,08,17,02,54,16.10
2017,08,17,02,55,16.10
2017,08,17,02,56,16.10
2017,08,17,02,57,16.10
2017,08,17,02,58,16.10
2017,08,17,02,59,16.00
2017,08,17,03,00,16.00
2017,08,17,03,01,16.00
2017,08,17,03,02,15.90
2017,08,17,03,03,15.90
2017,08,17,03,04,15.90
2017,08,17,03,05,15.90
2017,08,17,03,06,15.90
2017,08,17,03,07,15.90
2017,08,17,03,08,15.90
2017,08,17,03,09,15.80
2017,08,17,03,10,15.80
2017,08,17,03,11,15.80
2017,08,17,03,12,15.80
2017,08,17,03,13,15.80
2017,08,17,03,14,15.80
2017,08,17,03,15,15.70
2017,08,17,03,16,15.70
2017,08,17,03,17,15.70
2017,08,17,03,18,15.70
2017,08,17,03,19,15.70
2017,08,17,03,20,15.70
2017,08,17,03,21,15.70
2017,08,17,03,22,15.70
2017,08,17,03,23,15.70
2017,08,17,03,24,15.60
2017,08,17,03,25,15.60
2017,08,17,03,26,15.60
2017,08,17,03,27,15.60
2017,08,17,03,28,15.50
2017,08,17,03,29,15.50
2017,08,17,03,30,15.40
2017,08,17,03,31,15.40
2017,08,17,03,32,15.40
2017,08,17,03,33,15.40
2017,08,17,03,34,15.40
2017,08,17,03,35,15.30
2017,08,17,03,36,15.30
2017,08,17,03,37,15.20
2017,08,17,03,38,15.10
2017,08,17,03,39,15.00
2017,08,17,03,40,15.00
2017,08,17,03,41,15.00
2017,08,17,03,42,15.00
2017,08,17,03,43,14.90
2017,08,17,03,44,14.80
2017,08,17,03,45,14.70
2017,08,17,03,46,14.70
2017,08,17,03,47,14.60
2017,08,17,03,48,14.60
2017,08,17,03,49,14.60
2017,08,17,03,50,14.60
2017,08,17,03,51,14.60
2017,08,17,03,52,14.50
2017,08,17,03,53,14.50
2017,08,17,03,54,14.40
2017,08,17,03,55,14.40
2017,08,17,03,56,14.40
2017,08,17,03,57,14.40
2017,08,17,03,58,14.30
2017,08,17,03,59,14.30
2017,08,17,04,00,14.30
2017,08,17,04,01,14.30
2017,08,17,04,02,14.30
2017,08,17,04,03,14.40
2017,08,17,04,04,14.50
2017,08,17,04,05,14.50
2017,08,17,04,06,14.60
2017,08,17,04,07,14.70
2017,08,17,04,08,14.70
2017,08,17,04,09,14.80
2017,08,17,04,10,14.80
2017,08,17,04,11,14.90
2017,08,17,04,12,15.00
2017,08,17,04,13,15.00
2017,08,17,04,14,15.00
2017,08,17,04,15,15.00
2017,08,17,04,16,15.00
2017,08,17,04,17,15.00
2017,08,17,04,18,15.00
2017,08,17,04,19,15.00
2017,08,17,04,20,15.00
2017,08,17,04,21,15.00
2017,08,17,04,22,14.90
2017,08,17,04,23,14.90
2017,08,17,04,24,14.80
2017,08,17,04,25,14.80
2017,08,17,04,26,14.70
2017,08,17,04,27,14.60
2017,08,17,04,28,14.60
2017,08,17,04,29,14.50
2017,08,17,04,30,14.40
2017,08,17,04,31,14.40
2017,08,17,04,32,14.30
2017,08,17,04,33,14.30
2017,08,17,04,34,14.20
2017,08,17,04,35,14.20
2017,08,17,04,36,14.20
2017,08,17,04,37,14.10
2017,08,17,04,38,14.10
2017,08,17,04,39,14.00
2017,08,17,04,40,14.00
2017,08,17,04,41,13.90
2017,08,17,04,42,13.90
2017,08,17,04,43,13.90
2017,08,17,04,44,13.80
2017,08,17,04,45,13.80
2017,08,17,04,46,13.80
2017,08,17,04,47,13.70
2017,08,17,04,48,13.70
2017,08,17,04,49,13.70
2017,08,17,04,50,13.70
2017,08,17,04,51,13.60
2017,08,17,04,52,13.60
2017,08,17,04,53,13.60
2017,08,17,04,54,13.50
2017,08,17,04,55,13.50
2017,08,17,04,56,13.50
2017,08,17,04,57,13.50
2017,08,17,04,58,13.40
2017,08,17,04,59,13.40
2017,08,17,05,00,13.40
2017,08,17,05,01,13.30
2017,08,17,05,02,13.30
2017,08,17,05,03,13.30
2017,08,17,05,04,13.30
2017,08,17,05,05,13.20
2017,08,17,05,06,13.20
2017,08,17,05,07,13.20
2017,08,17,05,08,13.20
2017,08,17,05,09,13.20
2017,08,17,05,10,13.20
2017,08,17,05,11,13.10
2017,08,17,05,12,13.10
2017,08,17,05,13,13.10
2017,08,17,05,14,13.10
2017,08,17,05,15,13.10
2017,08,17,05,16,13.10
2017,08,17,05,17,13.00
2017,08,17,05,18,13.00
2017,08,17,05,19,13.00
2017,08,17,05,20,12.90
2017,08,17,05,21,12.90
2017,08,17,05,22,12.90
2017,08,17,05,23,12.90
2017,08,17,05,24,12.90
2017,08,17,05,25,12.80
2017,08,17,05,26,12.80
2017,08,17,05,27,12.80
2017,08,17,05,28,12.80
2017,08,17,05,29,12.80
2017,08,17,05,30,12.80
2017,08,17,05,31,12.80
2017,08,17,05,32,12.80
2017,08,17,05,33,12.80
2017,08,17,05,34,12.80
2017,08,17,05,35,12.90
2017,08,17,05,36,12.90
2017,08,17,05,37,12.90
2017,08,17,05,38,12.80
2017,08,17,05,39,12.80
2017,08,17,05,40,12.80
2017,08,17,05,41,12.80
2017,08,17,05,42,12.80
2017,08,17,05,43,12.80
2017,08,17,05,44,12.80
2017,08,17,05,45,12.80
2017,08,17,05,46,12.80
2017,08,17,05,47,12.70
2017,08,17,05,48,12.70
2017,08,17,05,49,12.70
2017,08,17,05,50,12.70
2017,08,17,05,51,12.70
2017,08,17,05,52,12.70
2017,08,17,05,53,12.70
2017,08,17,05,54,12.70
2017,08,17,05,55,12.70
2017,08,17,05,56,12.70
2017,08,17,05,57,12.70
2017,08,17,05,58,12.70
2017,08,17,05,59,12.70
2017,08,17,06,00,12.70
2017,08,17,06,01,12.70
2017,08,17,06,02,12.60
2017,08,17,06,03,12.60
2017,08,17,06,04,12.50
2017,08,17,06,05,12.50
2017,08,17,06,06,12.40
2017,08,17,06,07,12.40
2017,08,17,06,08,12.40
2017,08,17,06,09,12.40
2017,08,17,06,10,12.40
2017,08,17,06,11,12.30
2017,08,17,06,12,12.30
2017,08,17,06,13,12.30
2017,08,17,06,14,12.30
2017,08,17,06,15,12.20
2017,08,17,06,16,12.20
2017,08,17,06,17,12.20
2017,08,17,06,18,12.20
2017,08,17,06,19,12.20
2017,08,17,06,20,12.10
2017,08,17,06,21,12.10
2017,08,17,06,22,12.10
2017,08,17,06,23,12.10
2017,08,17,06,24,12.10
2017,08,17,06,25,12.10
2017,08,17,06,26,12.10
2017,08,17,06,27,12.10
2017,08,17,06,28,12.20
2017,08,17,06,29,12.10
2017,08,17,06,30,12.10
2017,08,17,06,31,12.10
2017,08,17,06,32,12.10
2017,08,17,06,33,12.10
2017,08,17,06,34,12.10
2017,08,17,06,35,12.10
2017,08,17,06,36,12.10
2017,08,17,06,37,12.10
2017,08,17,06,38,12.10
2017,08,17,06,39,12.10
2017,08,17,06,40,12.10
2017,08,17,06,41,12.20
2017,08,17,06,42,12.10
2017,08,17,06,43,12.10
2017,08,17,06,44,12.10
2017,08,17,06,45,12.10
2017,08,17,06,46,12.10
2017,08,17,06,47,12.20
2017,08,17,06,48,12.20
2017,08,17,06,49,12.20
2017,08,17,06,50,12.20
2017,08,17,06,51,12.20
2017,08,17,06,52,12.20
2017,08,17,06,53,12.30
2017,08,17,06,54,12.30
2017,08,17,06,55,12.30
2017,08,17,06,56,12.40
2017,08,17,06,57,12.40
2017,08,17,06,58,12.40
2017,08,17,06,59,12.40
2017,08,17,07,00,12.40
2017,08,17,07,01,12.40
2017,08,17,07,02,12.40
2017,08,17,07,03,12.40
2017,08,17,07,04,12.50
2017,08,17,07,05,12.50
2017,08,17,07,06,12.50
2017,08,17,07,07,12.50
2017,08,17,07,08,12.50
2017,08,17,07,09,12.50
2017,08,17,07,10,12.50
2017,08,17,07,11,12.50
2017,08,17,07,12,12.50
2017,08,17,07,13,12.60
2017,08,17,07,14,12.60
2017,08,17,07,15,12.60
2017,08,17,07,16,12.60
2017,08,17,07,17,12.60
2017,08,17,07,18,12.60
2017,08,17,07,19,12.70
2017,08,17,07,20,12.70
2017,08,17,07,21,12.70
2017,08,17,07,22,12.70
2017,08,17,07,23,12.80
2017,08,17,07,24,12.80
2017,08,17,07,25,12.90
2017,08,17,07,26,12.90
2017,08,17,07,27,13.00
2017,08,17,07,28,13.00
2017,08,17,07,29,13.10
2017,08,17,07,30,13.20
2017,08,17,07,31,13.20
2017,08,17,07,32,13.30
2017,08,17,07,33,13.30
2017,08,17,07,34,13.40
2017,08,17,07,35,13.40
2017,08,17,07,36,13.50
2017,08,17,07,37,13.60
2017,08,17,07,38,13.60
2017,08,17,07,39,13.70
2017,08,17,07,40,13.80
2017,08,17,07,41,13.80
2017,08,17,07,42,13.90
2017,08,17,07,43,14.00
2017,08,17,07,44,14.10
2017,08,17,07,45,14.20
2017,08,17,07,46,14.30
2017,08,17,07,47,14.40
2017,08,17,07,48,14.50
2017,08,17,07,49,14.60
2017,08,17,07,50,14.70
2017,08,17,07,51,14.90
2017,08,17,07,52,15.00
2017,08,17,07,53,15.00
2017,08,17,07,54,15.00
2017,08,17,07,55,15.10
2017,08,17,07,56,15.20
2017,08,17,07,57,15.40
2017,08,17,07,58,15.50
2017,08,17,07,59,15.60
2017,08,17,08,00,15.60
2017,08,17,08,01,15.70
2017,08,17,08,02,15.80
2017,08,17,08,03,15.90
2017,08,17,08,04,16.00
2017,08,17,08,05,16.10
2017,08,17,08,06,16.10
2017,08,17,08,07,16.20
2017,08,17,08,08,16.30
2017,08,17,08,09,16.40
2017,08,17,08,10,16.50
2017,08,17,08,11,16.60
2017,08,17,08,12,16.60
2017,08,17,08,13,16.70
2017,08,17,08,14,16.80
2017,08,17,08,15,16.80
2017,08,17,08,16,16.90
2017,08,17,08,17,17.00
2017,08,17,08,18,17.00
2017,08,17,08,19,17.10
2017,08,17,08,20,17.20
2017,08,17,08,21,17.20
2017,08,17,08,22,17.20
2017,08,17,08,23,17.30
2017,08,17,08,24,17.30
2017,08,17,08,25,17.40
2017,08,17,08,26,17.40
2017,08,17,08,27,17.40
2017,08,17,08,28,17.50
2017,08,17,08,29,17.50
2017,08,17,08,30,17.50
2017,08,17,08,31,17.60
2017,08,17,08,32,17.60
2017,08,17,08,33,17.60
2017,08,17,08,34,17.70
2017,08,17,08,35,17.70
2017,08,17,08,36,17.70
2017,08,17,08,37,17.70
2017,08,17,08,38,17.80
2017,08,17,08,39,17.80
2017,08,17,08,40,17.80
2017,08,17,08,41,17.80
2017,08,17,08,42,17.80
2017,08,17,08,43,17.90
2017,08,17,08,44,17.90
2017,08,17,08,45,17.90
2017,08,17,08,46,17.90
2017,08,17,08,47,18.00
2017,08,17,08,48,18.00
2017,08,17,08,49,18.10
2017,08,17,08,50,18.10
2017,08,17,08,51,18.10
2017,08,17,08,52,18.10
2017,08,17,08,53,18.10
2017,08,17,08,54,18.10
2017,08,17,08,55,18.20
2017,08,17,08,56,18.20
2017,08,17,08,57,18.20
2017,08,17,08,58,18.20
2017,08,17,08,59,18.20
2017,08,17,09,00,18.20
2017,08,17,09,01,18.30
2017,08,17,09,02,18.40
2017,08,17,09,03,18.40
2017,08,17,09,04,18.40
2017,08,17,09,05,18.40
2017,08,17,09,06,18.40
2017,08,17,09,07,18.40
2017,08,17,09,08,18.50
2017,08,17,09,09,18.50
2017,08,17,09,10,18.60
2017,08,17,09,11,18.60
2017,08,17,09,12,18.60
2017,08,17,09,13,18.60
2017,08,17,09,14,18.60
2017,08,17,09,15,18.60
2017,08,17,09,16,18.70
2017,08,17,09,17,18.70
2017,08,17,09,18,18.70
2017,08,17,09,19,18.80
2017,08,17,09,20,18.80
2017,08,17,09,21,18.80
2017,08,17,09,22,18.80
2017,08,17,09,23,18.80
2017,08,17,09,24,18.80
2017,08,17,09,25,18.80
2017,08,17,09,26,18.90
2017,08,17,09,27,18.90
2017,08,17,09,28,18.90
2017,08,17,09,29,18.90
2017,08,17,09,30,19.00
2017,08,17,09,31,19.00
2017,08,17,09,32,19.00
2017,08,17,09,33,19.00
2017,08,17,09,34,18.90
2017,08,17,09,35,18.90
2017,08,17,09,36,18.90
2017,08,17,09,37,19.00
2017,08,17,09,38,19.20
2017,08,17,09,39,19.30
2017,08,17,09,40,19.50
2017,08,17,09,41,19.60
2017,08,17,09,42,19.60
2017,08,17,09,43,19.70
2017,08,17,09,44,19.80
2017,08,17,09,45,19.70
2017,08,17,09,46,19.60
2017,08,17,09,47,19.60
2017,08,17,09,48,19.50
2017,08,17,09,49,19.50
2017,08,17,09,50,19.40
2017,08,17,09,51,19.40
2017,08,17,09,52,19.40
2017,08,17,09,53,19.40
2017,08,17,09,54,19.40
2017,08,17,09,55,19.40
2017,08,17,09,56,19.50
2017,08,17,09,57,19.50
2017,08,17,09,58,19.40
2017,08,17,09,59,19.50
2017,08,17,10,00,19.60
2017,08,17,10,01,19.50
2017,08,17,10,02,19.50
2017,08,17,10,03,19.50
2017,08,17,10,04,19.50
2017,08,17,10,05,19.40
2017,08,17,10,06,19.40
2017,08,17,10,07,19.50
2017,08,17,10,08,19.50
2017,08,17,10,09,19.50
2017,08,17,10,10,19.40
2017,08,17,10,11,19.30
2017,08,17,10,12,19.30
2017,08,17,10,13,19.30
2017,08,17,10,14,19.30
2017,08,17,10,15,19.40
2017,08,17,10,16,19.30
2017,08,17,10,17,19.30
2017,08,17,10,18,19.30
2017,08,17,10,19,19.30
2017,08,17,10,20,19.30
2017,08,17,10,21,19.30
2017,08,17,10,22,19.30
2017,08,17,10,23,19.40
2017,08,17,10,24,19.40
2017,08,17,10,25,19.50
2017,08,17,10,26,19.50
2017,08,17,10,27,19.50
2017,08,17,10,28,19.40
2017,08,17,10,29,19.30
2017,08,17,10,30,19.30
2017,08,17,10,31,19.30
2017,08,17,10,32,19.30
2017,08,17,10,33,19.30
2017,08,17,10,34,19.30
2017,08,17,10,35,19.30
2017,08,17,10,36,19.20
2017,08,17,10,37,19.20
2017,08,17,10,38,19.20
2017,08,17,10,39,19.20
2017,08,17,10,40,19.20
2017,08,17,10,41,19.20
2017,08,17,10,42,19.20
2017,08,17,10,43,19.10
2017,08,17,10,44,19.20
2017,08,17,10,45,19.30
2017,08,17,10,46,19.30
2017,08,17,10,47,19.30
2017,08,17,10,48,19.40
2017,08,17,10,49,19.40
2017,08,17,10,50,19.50
2017,08,17,10,51,19.50
2017,08,17,10,52,19.60
2017,08,17,10,53,19.60
2017,08,17,10,54,19.50
2017,08,17,10,55,19.50
2017,08,17,10,56,19.50
2017,08,17,10,57,19.40
2017,08,17,10,58,19.40
2017,08,17,10,59,19.50
2017,08,17,11,00,19.70
2017,08,17,11,01,19.70
2017,08,17,11,02,19.70
2017,08,17,11,03,19.70
2017,08,17,11,04,19.80
2017,08,17,11,05,19.80
2017,08,17,11,06,19.80
2017,08,17,11,07,19.80
2017,08,17,11,08,19.80
2017,08,17,11,09,19.80
2017,08,17,11,10,19.90
2017,08,17,11,11,19.90
2017,08,17,11,12,19.90
2017,08,17,11,13,19.80
2017,08,17,11,14,19.70
2017,08,17,11,15,19.70
2017,08,17,11,16,19.70
2017,08,17,11,17,19.80
2017,08,17,11,18,19.80
2017,08,17,11,19,19.80
2017,08,17,11,20,19.90
2017,08,17,11,21,19.80
2017,08,17,11,22,19.70
2017,08,17,11,23,19.70
2017,08,17,11,24,19.70
2017,08,17,11,25,19.60
2017,08,17,11,26,19.60
2017,08,17,11,27,19.60
2017,08,17,11,28,19.70
2017,08,17,11,29,19.80
2017,08,17,11,30,19.80
2017,08,17,11,31,19.90
2017,08,17,11,32,19.90
2017,08,17,11,33,19.90
2017,08,17,11,34,19.90
2017,08,17,11,35,20.00
2017,08,17,11,36,20.00
2017,08,17,11,37,20.00
2017,08,17,11,38,20.00
2017,08,17,11,39,20.10
2017,08,17,11,40,20.20
2017,08,17,11,41,20.30
2017,08,17,11,42,20.20
2017,08,17,11,43,20.20
2017,08,17,11,44,20.10
2017,08,17,11,45,20.00
2017,08,17,11,46,20.00
2017,08,17,11,47,20.10
2017,08,17,11,48,20.20
2017,08,17,11,49,20.30
2017,08,17,11,50,20.50
2017,08,17,11,51,20.60
2017,08,17,11,52,20.70
2017,08,17,11,53,20.80
2017,08,17,11,54,20.80
2017,08,17,11,55,20.80
2017,08,17,11,56,20.70
2017,08,17,11,57,20.70
2017,08,17,11,58,20.70
2017,08,17,11,59,20.60
2017,08,17,12,00,20.60
2017,08,17,12,01,20.70
2017,08,17,12,02,20.60
2017,08,17,12,03,20.50
2017,08,17,12,04,20.50
2017,08,17,12,05,20.60
2017,08,17,12,06,20.70
2017,08,17,12,07,20.80
2017,08,17,12,08,21.00
2017,08,17,12,09,21.10
2017,08,17,12,10,21.20
2017,08,17,12,11,21.20
2017,08,17,12,12,21.20
2017,08,17,12,13,21.00
2017,08,17,12,14,20.90
2017,08,17,12,15,21.00
2017,08,17,12,16,21.00
2017,08,17,12,17,21.00
2017,08,17,12,18,21.00
2017,08,17,12,19,20.90
2017,08,17,12,20,20.90
2017,08,17,12,21,20.90
2017,08,17,12,22,20.90
2017,08,17,12,23,21.00
2017,08,17,12,24,21.10
2017,08,17,12,25,21.10
2017,08,17,12,26,21.10
2017,08,17,12,27,21.10
2017,08,17,12,28,21.00
2017,08,17,12,29,20.90
2017,08,17,12,30,21.00
2017,08,17,12,31,21.10
2017,08,17,12,32,21.20
2017,08,17,12,33,21.30
2017,08,17,12,34,21.40
2017,08,17,12,35,21.50
2017,08,17,12,36,21.60
2017,08,17,12,37,21.50
2017,08,17,12,38,21.50
2017,08,17,12,39,21.50
2017,08,17,12,40,21.40
2017,08,17,12,41,21.40
2017,08,17,12,42,21.40
2017,08,17,12,43,21.50
2017,08,17,12,44,21.60
2017,08,17,12,45,21.60
2017,08,17,12,46,21.60
2017,08,17,12,47,21.60
2017,08,17,12,48,21.60
2017,08,17,12,49,21.70
2017,08,17,12,50,21.70
2017,08,17,12,51,21.70
2017,08,17,12,52,21.80
2017,08,17,12,53,21.80
2017,08,17,12,54,21.80
2017,08,17,12,55,21.70
2017,08,17,12,56,21.70
2017,08,17,12,57,21.60
2017,08,17,12,58,21.40
2017,08,17,12,59,21.30
2017,08,17,13,00,21.30
2017,08,17,13,01,21.30
2017,08,17,13,02,21.30
2017,08,17,13,03,21.30
2017,08,17,13,04,21.20
2017,08,17,13,05,21.20
2017,08,17,13,06,21.20
2017,08,17,13,07,21.20
2017,08,17,13,08,21.30
2017,08,17,13,09,21.30
2017,08,17,13,10,21.30
2017,08,17,13,11,21.40
2017,08,17,13,12,21.40
2017,08,17,13,13,21.50
2017,08,17,13,14,21.60
2017,08,17,13,15,21.60
2017,08,17,13,16,21.60
2017,08,17,13,17,21.50
2017,08,17,13,18,21.40
2017,08,17,13,19,21.30
2017,08,17,13,20,21.10
2017,08,17,13,21,20.90
2017,08,17,13,22,20.90
2017,08,17,13,23,21.00
2017,08,17,13,24,21.10
2017,08,17,13,25,21.20
2017,08,17,13,26,21.30
2017,08,17,13,27,21.30
2017,08,17,13,28,21.40
2017,08,17,13,29,21.40
2017,08,17,13,30,21.30
2017,08,17,13,31,21.20
2017,08,17,13,32,21.10
2017,08,17,13,33,21.00
2017,08,17,13,34,21.00
2017,08,17,13,35,20.90
2017,08,17,13,36,20.90
2017,08,17,13,37,21.00
2017,08,17,13,38,21.10
2017,08,17,13,39,21.00
2017,08,17,13,40,20.80
2017,08,17,13,41,20.70
2017,08,17,13,42,20.70
2017,08,17,13,43,20.70
2017,08,17,13,44,20.70
2017,08,17,13,45,20.70
2017,08,17,13,46,20.60
2017,08,17,13,47,20.60
2017,08,17,13,48,20.70
2017,08,17,13,49,20.80
2017,08,17,13,50,21.00
2017,08,17,13,51,21.10
2017,08,17,13,52,21.00
2017,08,17,13,53,20.90
2017,08,17,13,54,20.80
2017,08,17,13,55,20.80
2017,08,17,13,56,20.80
2017,08,17,13,57,20.90
2017,08,17,13,58,20.90
2017,08,17,13,59,20.90
2017,08,17,14,00,20.90
2017,08,17,14,01,20.80
2017,08,17,14,02,20.90
2017,08,17,14,03,20.90
2017,08,17,14,04,20.80
2017,08,17,14,05,20.70
2017,08,17,14,06,20.60
2017,08,17,14,07,20.60
2017,08,17,14,08,20.60
2017,08,17,14,09,20.60
2017,08,17,14,10,20.60
2017,08,17,14,11,20.50
2017,08,17,14,12,20.40
2017,08,17,14,13,20.40
2017,08,17,14,14,20.60
2017,08,17,14,15,20.70
2017,08,17,14,16,20.80
2017,08,17,14,17,21.00
2017,08,17,14,18,21.00
2017,08,17,14,19,21.10
2017,08,17,14,20,21.00
2017,08,17,14,21,21.10
2017,08,17,14,22,21.10
2017,08,17,14,23,21.00
2017,08,17,14,24,20.90
2017,08,17,14,25,20.80
2017,08,17,14,26,20.70
2017,08,17,14,27,20.60
2017,08,17,14,28,20.50
2017,08,17,14,29,20.50
2017,08,17,14,30,20.60
2017,08,17,14,31,20.70
2017,08,17,14,32,20.60
2017,08,17,14,33,20.60
2017,08,17,14,34,20.50
2017,08,17,14,35,20.30
2017,08,17,14,36,20.30
2017,08,17,14,37,20.20
2017,08,17,14,38,20.20
2017,08,17,14,39,20.20
2017,08,17,14,40,20.20
2017,08,17,14,41,20.30
2017,08,17,14,42,20.30
2017,08,17,14,43,20.30
2017,08,17,14,44,20.40
2017,08,17,14,45,20.40
2017,08,17,14,46,20.30
2017,08,17,14,47,20.30
2017,08,17,14,48,20.30
2017,08,17,14,49,20.30
2017,08,17,14,50,20.30
2017,08,17,14,51,20.20
2017,08,17,14,52,20.20
2017,08,17,14,53,20.20
2017,08,17,14,54,20.20
2017,08,17,14,55,20.20
2017,08,17,14,56,20.20
2017,08,17,14,57,20.30
2017,08,17,14,58,20.30
2017,08,17,14,59,20.40
2017,08,17,15,00,20.40
2017,08,17,15,01,20.40
2017,08,17,15,02,20.50
2017,08,17,15,03,20.50
2017,08,17,15,04,20.40
2017,08,17,15,05,20.40
2017,08,17,15,06,20.40
2017,08,17,15,07,20.50
2017,08,17,15,08,20.60
2017,08,17,15,09,20.50
2017,08,17,15,10,20.50
2017,08,17,15,11,20.50
2017,08,17,15,12,20.50
2017,08,17,15,13,20.60
2017,08,17,15,14,20.60
2017,08,17,15,15,20.60
2017,08,17,15,16,20.60
2017,08,17,15,17,20.60
2017,08,17,15,18,20.70
2017,08,17,15,19,20.80
2017,08,17,15,20,20.80
2017,08,17,15,21,20.90
2017,08,17,15,22,21.00
2017,08,17,15,23,21.00
2017,08,17,15,24,21.10
2017,08,17,15,25,21.20
2017,08,17,15,26,21.40
2017,08,17,15,27,21.60
2017,08,17,15,28,21.70
2017,08,17,15,29,21.70
2017,08,17,15,30,21.70
2017,08,17,15,31,21.60
2017,08,17,15,32,21.60
2017,08,17,15,33,21.60
2017,08,17,15,34,21.60
2017,08,17,15,35,21.60
2017,08,17,15,36,21.60
2017,08,17,15,37,21.60
2017,08,17,15,38,21.70
2017,08,17,15,39,21.70
2017,08,17,15,40,21.70
2017,08,17,15,41,21.80
2017,08,17,15,42,22.00
2017,08,17,15,43,22.10
2017,08,17,15,44,22.10
2017,08,17,15,45,22.20
2017,08,17,15,46,22.30
2017,08,17,15,47,22.40
2017,08,17,15,48,22.40
2017,08,17,15,49,22.50
2017,08,17,15,50,22.40
2017,08,17,15,51,22.40
2017,08,17,15,52,22.40
2017,08,17,15,53,22.40
2017,08,17,15,54,22.30
2017,08,17,15,55,22.20
2017,08,17,15,56,22.10
2017,08,17,15,57,22.10
2017,08,17,15,58,22.10
2017,08,17,15,59,22.20
2017,08,17,16,00,22.30
2017,08,17,16,01,22.20
2017,08,17,16,02,22.20
2017,08,17,16,03,22.20
2017,08,17,16,04,22.30
2017,08,17,16,05,22.40
2017,08,17,16,06,22.40
2017,08,17,16,07,22.50
2017,08,17,16,08,22.50
2017,08,17,16,09,22.50
2017,08,17,16,10,22.40
2017,08,17,16,11,22.50
2017,08,17,16,12,22.50
2017,08,17,16,13,22.50
2017,08,17,16,14,22.50
2017,08,17,16,15,22.50
2017,08,17,16,16,22.50
2017,08,17,16,17,22.60
2017,08,17,16,18,22.70
2017,08,17,16,19,22.70
2017,08,17,16,20,22.80
2017,08,17,16,21,22.90
2017,08,17,16,22,22.90
2017,08,17,16,23,22.80
2017,08,17,16,24,22.80
2017,08,17,16,25,22.80
2017,08,17,16,26,22.70
2017,08,17,16,27,22.70
2017,08,17,16,28,22.50
2017,08,17,16,29,22.40
2017,08,17,16,30,22.40
2017,08,17,16,31,22.40
2017,08,17,16,32,22.50
2017,08,17,16,33,22.50
2017,08,17,16,34,22.50
2017,08,17,16,35,22.50
2017,08,17,16,36,22.40
2017,08,17,16,37,22.40
2017,08,17,16,38,22.30
2017,08,17,16,39,22.20
2017,08,17,16,40,22.30
2017,08,17,16,41,22.30
2017,08,17,16,42,22.30
2017,08,17,16,43,22.40
2017,08,17,16,44,22.50
2017,08,17,16,45,22.60
2017,08,17,16,46,22.60
2017,08,17,16,47,22.50
2017,08,17,16,48,22.50
2017,08,17,16,49,22.50
2017,08,17,16,50,22.40
2017,08,17,16,51,22.30
2017,08,17,16,52,22.30
2017,08,17,16,53,22.20
2017,08,17,16,54,22.20
2017,08,17,16,55,22.10
2017,08,17,16,56,22.00
2017,08,17,16,57,22.10
2017,08,17,16,58,22.10
2017,08,17,16,59,22.10
2017,08,17,17,00,22.20
2017,08,17,17,01,22.20
2017,08,17,17,02,22.30
2017,08,17,17,03,22.30
2017,08,17,17,04,22.20
2017,08,17,17,05,22.20
2017,08,17,17,06,22.20
2017,08,17,17,07,22.10
2017,08,17,17,08,22.10
2017,08,17,17,09,22.10
2017,08,17,17,10,22.10
2017,08,17,17,11,22.10
2017,08,17,17,12,22.20
2017,08,17,17,13,22.20
2017,08,17,17,14,22.20
2017,08,17,17,15,22.20
2017,08,17,17,16,22.30
2017,08,17,17,17,22.40
2017,08,17,17,18,22.50
2017,08,17,17,19,22.50